Flag for U.S.A. Weather past 2 weeks in Bradenton, Florida, U.S.A.

Now
63 °F

Clear.


Feels Like: 63 °F
Forecast: 64 / 79 °F
Wind: 7 mph from Southeast

Location: Sarasota-Bradenton International Airport

Current Time: Mar 4, 2015 at 6:43:17 AM

Latest Report: Mar 4, 2015 at 5:53 AM


Visibility: 10 mi

Pressure: 30.09 "Hg

Humidity: 100%

Dew point: 63 °F

Location of BradentonLocation

Historic Weather in Bradenton — Graph

°F

Bradenton temperature yesterday

Maximum temperature yesterday: 81 °F (at 11:53 AM)
Minimum temperature yesterday: 63 °F (at 6:53 AM)
Average temperature yesterday: 70 °F

Past Weeks' High & Low Weather Summary

 TemperatureHumidityPressure
High82 °F (Mar 1, 1:53 PM)100% (Feb 22, 11:53 PM)30.40 "Hg (Feb 22, 11:53 PM)
Low33 °F (Feb 20, 6:53 AM)16% (Feb 20, 2:53 PM)29.72 "Hg (Feb 26, 2:53 AM)
Average63 °F79%30.13 "Hg
* Reported Feb 17 4:53 AM — Mar 4 4:53 AM, Bradenton, Weather by CustomWeather, © 2015

Note: Actual official high and low records may vary slightly from our data, if they occured in-between our weather recording intervals... More about our weather records

Advertising

Bradenton weather history for previous 24 hours

 ConditionsComfort  
Time TempWeatherWind HumidityBarometerVisibility
4:53 AM
Wed, Mar 4
62 °FClear.6 mph100%30.08 "Hg10 mi
3:53 AM62 °FClear.3 mph96%30.08 "Hg10 mi
2:53 AM63 °FClear.5 mph97%30.08 "Hg10 mi
1:53 AM65 °FClear.5 mph94%30.10 "Hg10 mi
12:53 AM65 °FClear.5 mph97%30.12 "Hg10 mi
11:53 PM
Tue, Mar 3
65 °FClear.No wind97%30.13 "Hg10 mi
10:53 PM65 °FClear.3 mph100%30.14 "Hg10 mi
9:53 PM66 °FClear.No wind93%30.13 "Hg10 mi
8:53 PM68 °FPassing clouds.No wind90%30.13 "Hg10 mi
7:53 PM70 °FPassing clouds.3 mph87%30.12 "Hg10 mi
6:53 PM72 °FClear.3 mph78%30.10 "Hg10 mi
5:53 PM73 °FScattered clouds.6 mph79%30.09 "Hg10 mi
4:53 PM74 °FPassing clouds.9 mph76%30.09 "Hg10 mi
3:53 PM75 °FPassing clouds.12 mph71%30.09 "Hg10 mi
2:53 PM75 °FBroken clouds.9 mph74%30.11 "Hg10 mi
1:53 PM75 °FPartly sunny.9 mph74%30.12 "Hg10 mi
12:53 PM81 °FPartly sunny.12 mph56%30.15 "Hg10 mi
11:53 AM81 °FScattered clouds.13 mph54%30.18 "Hg10 mi
10:53 AM78 °FPassing clouds.15 mph64%30.19 "Hg10 mi
9:53 AM75 °FSunny.13 mph76%30.20 "Hg10 mi
8:53 AM68 °FSunny.7 mph93%30.20 "Hg10 mi
7:53 AM64 °FFog.6 mph100%30.19 "Hg0 mi
6:53 AM63 °FFog.6 mph100%30.18 "Hg0 mi
Weather by CustomWeather, © 2015

See weather overviewHow to use our weather pages